Terminal Aerodrome Forecast
Issued by NWS Pittsburgh, PA

Current Version | Previous Version | Graphics & Text | Print | Product List | Glossary On
Versions: 1 2 3 4 5 6 7 8 9 10 11 12 13 14 15 16 17 18 19 20 21 22 23 24 25 26 27 28
000
FTUS41 KPBZ 162100 AAC
TAFPIT
TAF AMD
KPIT 162100Z 1621/1724 25008KT P6SM BKN035 OVC050
     FM162200 24010KT P6SM -SHRA OVC016
     FM170200 24009KT 6SM -SHRA OVC007
     FM171000 26008KT P6SM OVC015
     FM171500 26012G22KT P6SM BKN025=

USA.gov is the U.S. government's official web portal to all federal, state and local government web resources and services.